Home   Weather   Grande Prairie   Past weeks

Flag for Canada Past Weather in Grande Prairie, Alberta, Canada — Yesterday and Last 2 Weeks

Now
54 °F

Passing clouds.


Feels Like: 52 °F
Forecast: 46 / 68 °F
Wind: 6 mph from Southwest

Location: Grande Prairie

Current Time: Sep 25, 2016 at 9:47:08 PM

Latest Report: Sep 25, 2016 at 9:00 PM


Visibility: 25 mi

Pressure: 30.14 "Hg (27.86 "Hg at 657m altitude)

Humidity: 67%

Dew Point: 43 °F

Location of Grande PrairieLocation

Past Weather in Grande Prairie — Graph

°F

Grande Prairie Temperature Yesterday

Maximum temperature yesterday: 59 °F (at 3:00 PM)
Minimum temperature yesterday: 43 °F (at 6:00 AM)
Average temperature yesterday: 50 °F

High & Low Weather Summary for the Past Weeks

 TemperatureHumidityPressure
High77 °F (Sep 13, 4:00 PM)100% (Sep 12, 3:00 AM)30.42 "Hg (Sep 12, 3:00 AM)
Low30 °F (Sep 12, 5:00 AM)24% (Sep 22, 6:00 PM)29.50 "Hg (Sep 17, 4:00 PM)
Average51 °F67%29.99 "Hg
* Reported Sep 10 8:00 PM — Sep 25 8:00 PM, Grande Prairie, Weather by CustomWeather, © 2016

Note: Actual official high and low records may vary slightly from our data, if they occured in-between our weather recording intervals... More about our weather records

Advertising

Grande Prairie Weather History for the Previous 24 Hours

Scroll right to see more
 ConditionsComfort  
Time TempWeatherWind HumidityBarometerVisibility
8:00 PM
Sun, Sep 25
54 °FPassing clouds.8 mph67%30.15 "Hg25 mi
7:00 PM57 °FBroken clouds.8 mph59%30.15 "Hg25 mi
6:00 PM63 °FBroken clouds.10 mph49%30.15 "Hg25 mi
5:00 PM63 °FBroken clouds.7 mph49%30.16 "Hg25 mi
4:00 PM61 °FMostly cloudy.7 mph48%30.17 "Hg25 mi
3:00 PM59 °FMostly cloudy.10 mph51%30.19 "Hg25 mi
2:00 PM57 °FMostly cloudy.6 mph55%30.19 "Hg25 mi
1:00 PM55 °FMostly cloudy.3 mph55%30.19 "Hg25 mi
12:00 PM48 °FMostly cloudy.2 mph62%30.21 "Hg25 mi
11:00 AM45 °FMostly cloudy.3 mph66%30.22 "Hg25 mi
10:00 AM43 °FMostly cloudy.3 mph76%30.22 "Hg25 mi
9:00 AM41 °FMostly cloudy.2 mph76%30.22 "Hg25 mi
8:00 AM39 °FMostly cloudy.3 mph81%30.22 "Hg25 mi
7:00 AM39 °FPassing clouds.No wind81%30.22 "Hg25 mi
6:00 AM39 °FPassing clouds.3 mph81%30.21 "Hg25 mi
5:00 AM41 °FPassing clouds.5 mph70%30.22 "Hg25 mi
4:00 AM41 °FPassing clouds.3 mph70%30.22 "Hg25 mi
3:00 AM39 °FPassing clouds.8 mph75%30.23 "Hg25 mi
2:00 AM39 °FClear.7 mph75%30.26 "Hg25 mi
1:00 AM43 °FClear.10 mph66%30.25 "Hg25 mi
12:00 AM43 °FClear.12 mph66%30.24 "Hg25 mi
11:00 PM
Sat, Sep 24
45 °FPassing clouds.12 mph61%30.24 "Hg25 mi
10:00 PM45 °FPassing clouds.13 mph61%30.24 "Hg25 mi
9:00 PM48 °FPassing clouds.14 mph54%30.24 "Hg25 mi
Weather by CustomWeather, © 2016

See weather overviewHow to use our weather pages